Woensdrecht, Netherlands

4:06 PM CEST on September 20, 2017 (GMT +0200)
Woensdrecht Air Base

Weather History for EHWO - March, 2014

Change the Weather History Date:

Saturday, March 15, 2014

  Actual Average Record
Temperature  
Mean Temperature 46 °F -  
Max Temperature 52 °F 52 °F 66 °F (2012)
Min Temperature 41 °F 38 °F 23 °F (2013)
Degree Days  
Heating Degree Days 18    
Moisture  
Dew Point 43 °F    
Average Humidity 79    
Maximum Humidity 93    
Minimum Humidity 56    
Precipitation  
Precipitation 0.00 in - - ()
Sea Level Pressure  
Sea Level Pressure 30.19 in    
Wind  
Wind Speed 12 mph ()    
Max Wind Speed 18 mph    
Max Gust Speed 30 mph    
Visibility 5.3 miles    
Events Rain    
Averages and records for this station are not official NWS values.
T = Trace of Precipitation, MM = Missing Value Source: Averaged Metar Reports

Daily Weather History Graph

Daily Weather History Graph

Search for Another Location

Airport or City:

Trip Planner

Search our weather history database for the weather conditions in past years. The results will help you decide how hot, cold, wet, or windy it might be!

Date:

Astronomy

Mar. 15, 2014 Rise Set
Actual Time 6:57 AM CET 6:47 PM CET
Civil Twilight 6:24 AM CET 7:20 PM CET
Nautical Twilight 5:45 AM CET 7:59 PM CET
Astronomical Twilight 5:05 AM CET 8:39 PM CET
Moon 5:48 PM CET (3/15) 6:06 AM CET (3/15)
Length of Visible Light 12h 56m
Length of Day
11h 49m
Waxing Gibbous, 98% of the Moon is Illuminated
Mar 15
Waxing Gibbous
Mar 16
Full
Mar 24
Last Quarter
Mar 30
New
Apr 7
First Quarter

Hourly Weather History & Observations

Time (CET) Temp. Windchill Dew Point Humidity Pressure Visibility Wind Dir Wind Speed Gust Speed Precip Events Conditions
12:00 AM 45 °F - 42 °F 86% 30.20 in 1 mi West 11.2 mph - -   Mist
12:10 AM 44.6 °F 38.8 °F 42.8 °F 93% 30.18 in 1.5 mi West 11.5 mph - N/A   Scattered Clouds
12:20 AM 44.6 °F 38.8 °F 42.8 °F 93% 30.18 in 1.5 mi West 11.5 mph - N/A   Scattered Clouds
12:25 AM 44.6 °F 38.8 °F 42.8 °F 93% 30.18 in 1.4 mi West 11.5 mph - N/A   Mostly Cloudy
12:41 AM 44.6 °F 38.8 °F 42.8 °F 93% 30.18 in 1.4 mi West 11.5 mph - N/A   Partly Cloudy
12:55 AM 44.6 °F 38.4 °F 42.8 °F 93% 30.18 in 1.4 mi WSW 12.7 mph - N/A   Mist
1:00 AM 44 °F - 42 °F 92% 30.19 in 1 mi WSW 13.4 mph - -   Mist
1:25 AM 44.6 °F 38.8 °F 42.8 °F 93% 30.18 in 1.4 mi West 11.5 mph - N/A   Mist
1:55 AM 44.6 °F 39.2 °F 42.8 °F 93% 30.18 in 1.4 mi WSW 10.4 mph - N/A   Mist
2:00 AM 45 °F - 43 °F 92% 30.18 in 1 mi WSW 11.2 mph - -   Mist
2:04 AM 44.6 °F 38.8 °F 42.8 °F 93% 30.18 in 1.4 mi WSW 11.5 mph - N/A   Scattered Clouds
2:25 AM 44.6 °F 39.7 °F 42.8 °F 93% 30.15 in 1.4 mi WSW 9.2 mph - N/A   Partly Cloudy
2:55 AM 46.4 °F 42.4 °F 44.6 °F 93% 30.18 in 1.5 mi West 8.1 mph - N/A   Overcast
3:00 AM 47 °F - 45 °F 88% 30.19 in 1 mi West 8.9 mph - -   Mist
3:25 AM 48.2 °F - 44.6 °F 87% 30.15 in - West 12.7 mph - N/A   Overcast
3:30 AM 48.2 °F - 44.6 °F 87% 30.15 in - West 11.5 mph - N/A   Overcast
3:41 AM 48.2 °F - 44.6 °F 87% 30.15 in 3.1 mi West 11.5 mph - N/A   Overcast
3:45 AM 48.2 °F - 44.6 °F 87% 30.15 in 3.1 mi West 11.5 mph - N/A   Mostly Cloudy
3:51 AM 48.2 °F - 44.6 °F 87% 30.15 in 3.1 mi West 12.7 mph - N/A   Overcast
3:55 AM 48.2 °F - 42.8 °F 82% 30.15 in 3.7 mi West 12.7 mph - N/A   Overcast
4:00 AM 48 °F - 44 °F 79% 30.17 in 4 mi West 13.4 mph - -   Mist
4:25 AM 48.2 °F - 42.8 °F 82% 30.15 in 4.3 mi West 12.7 mph - N/A   Mostly Cloudy
4:33 AM 48.2 °F - 42.8 °F 82% 30.15 in 4.3 mi West 15.0 mph - N/A   Mostly Cloudy
4:37 AM 48.2 °F - 42.8 °F 82% 30.15 in 4.3 mi West 15.0 mph - N/A   Mostly Cloudy
4:55 AM 48.2 °F - 42.8 °F 82% 30.15 in 4.3 mi West 15.0 mph - N/A   Overcast
5:00 AM 48 °F - 44 °F 80% 30.17 in 4 mi West 15.7 mph - -   Mist
5:05 AM 48.2 °F - 44.6 °F 87% 30.15 in 4.3 mi West 15.0 mph - N/A   Overcast
5:09 AM 48.2 °F - 44.6 °F 87% 30.15 in 3.7 mi West 13.8 mph - N/A   Overcast
5:25 AM 48.2 °F - 44.6 °F 87% 30.15 in 3.7 mi West 15.0 mph - N/A   Overcast
5:34 AM 48.2 °F - 44.6 °F 87% 30.15 in 3.1 mi West 15.0 mph - N/A   Overcast
5:55 AM 48.2 °F - 44.6 °F 87% 30.15 in 4.3 mi West 13.8 mph - N/A   Overcast
6:00 AM 48 °F - 44 °F 81% 30.19 in 4 mi West 15.7 mph - -   Mist
6:25 AM 48.2 °F - 44.6 °F 87% 30.15 in 3.7 mi West 15.0 mph - N/A   Overcast
6:41 AM 48.2 °F - 44.6 °F 87% 30.15 in 5.0 mi West 13.8 mph - N/A   Mostly Cloudy
6:45 AM 48.2 °F - 44.6 °F 87% 30.15 in 5.0 mi West 13.8 mph - N/A   Mostly Cloudy
6:55 AM 48.2 °F - 42.8 °F 82% 30.15 in 5.0 mi West 15.0 mph - N/A   Mostly Cloudy
6:59 AM 48.2 °F - 42.8 °F 82% 30.15 in 5.0 mi West 15.0 mph - N/A   Mostly Cloudy
7:00 AM 48 °F - 44 °F 79% 30.19 in 5 mi West 13.4 mph - -   Mist
7:10 AM 48.2 °F - 44.6 °F 87% 30.18 in 5.0 mi West 13.8 mph - N/A   Mostly Cloudy
7:14 AM 48.2 °F - 44.6 °F 87% 30.18 in 5.0 mi West 13.8 mph - N/A   Mostly Cloudy
7:15 AM 48.2 °F - 44.6 °F 87% 30.18 in 5.0 mi West 12.7 mph - N/A   Mostly Cloudy
7:25 AM 48.2 °F - 44.6 °F 87% 30.18 in 5.0 mi West 13.8 mph - N/A   Mostly Cloudy
7:34 AM 48.2 °F - 44.6 °F 87% 30.18 in 5.0 mi West 12.7 mph - N/A   Mostly Cloudy
7:38 AM 48.2 °F - 44.6 °F 87% 30.18 in 4.3 mi WNW 13.8 mph - N/A   Mostly Cloudy
7:44 AM 48.2 °F - 44.6 °F 87% 30.18 in 3.7 mi West 15.0 mph - N/A Rain Light Rain
7:48 AM 48.2 °F - 44.6 °F 87% 30.18 in - West 16.1 mph - N/A Rain Rain
7:55 AM 48.2 °F - 44.6 °F 87% 30.18 in - WNW 13.8 mph - N/A   Heavy Drizzle
8:00 AM 47 °F - 45 °F 90% 30.20 in 3 mi WNW 13.4 mph - - Rain Drizzle
8:00 AM 48.2 °F - 44.6 °F 87% 30.18 in 3.1 mi WNW 15.0 mph - N/A   Drizzle
8:05 AM 48.2 °F - 44.6 °F 87% 30.18 in 3.1 mi WNW 13.8 mph - N/A   Light Drizzle
8:09 AM 48.2 °F - 44.6 °F 87% 30.18 in 3.7 mi WNW 11.5 mph - N/A   Mostly Cloudy
8:13 AM 48.2 °F - 44.6 °F 87% 30.18 in 4.3 mi WNW 10.4 mph - N/A   Light Drizzle
8:14 AM 48.2 °F - 44.6 °F 87% 30.18 in 5.0 mi WNW 10.4 mph - N/A Rain Rain
8:25 AM 48.2 °F - 44.6 °F 87% 30.18 in 5.0 mi WNW 11.5 mph - N/A Rain Light Rain
8:29 AM 48.2 °F - 44.6 °F 87% 30.18 in 5.0 mi WNW 11.5 mph - N/A   Drizzle
8:35 AM 48.2 °F - 44.6 °F 87% 30.18 in 5.0 mi WNW 11.5 mph - N/A   Mostly Cloudy
8:43 AM 48.2 °F - 44.6 °F 87% 30.18 in 5.0 mi WNW 10.4 mph - N/A   Mostly Cloudy
8:47 AM 48.2 °F - 44.6 °F 87% 30.18 in 5.6 mi WNW 11.5 mph 23.0 mph N/A   Mostly Cloudy
8:55 AM 48.2 °F - 44.6 °F 87% 30.21 in 6.2 mi WNW 11.5 mph - N/A   Mostly Cloudy
9:00 AM 49 °F - 44 °F 76% 30.22 in 7 mi WNW 11.2 mph - - Rain Rain
9:00 AM 48.2 °F - 44.6 °F 87% 30.21 in 6.2 mi WNW 11.5 mph - N/A   Mostly Cloudy
9:04 AM 48.2 °F - 44.6 °F 87% 30.21 in 6.2 mi WNW 11.5 mph - N/A   Mostly Cloudy
9:17 AM 48.2 °F - 42.8 °F 82% 30.21 in 6.2 mi NW 13.8 mph - N/A   Mostly Cloudy
9:25 AM 50.0 °F - 42.8 °F 76% 30.21 in 6.2 mi WNW 13.8 mph - N/A   Mostly Cloudy
9:29 AM 50.0 °F - 42.8 °F 76% 30.21 in 6.2 mi WNW 13.8 mph - N/A   Overcast
9:33 AM 50.0 °F - 42.8 °F 76% 30.21 in 6.2 mi NW 15.0 mph - N/A   Overcast
9:34 AM 50.0 °F - 42.8 °F 76% 30.21 in 6.2 mi NW 15.0 mph - N/A   Overcast
9:55 AM 50.0 °F - 42.8 °F 76% 30.21 in 6.2 mi NW 13.8 mph 25.3 mph N/A   Mostly Cloudy
10:00 AM 49 °F - 42 °F 69% 30.23 in 9 mi NW 13.4 mph - -   Partly Cloudy
10:25 AM 50.0 °F - 42.8 °F 76% 30.21 in 6.2 mi NW 12.7 mph - N/A   Overcast
10:55 AM 50.0 °F - 42.8 °F 76% 30.24 in 6.2 mi NW 12.7 mph 26.5 mph N/A   Overcast
11:00 AM 50 °F - 42 °F 67% 30.25 in 10 mi NW 13.4 mph - -   Partly Cloudy
11:25 AM 51.8 °F - 42.8 °F 71% 30.24 in 6.2 mi NW 12.7 mph - N/A   Overcast
11:55 AM 51.8 °F - 42.8 °F 71% 30.24 in 6.2 mi NW 16.1 mph - N/A   Mostly Cloudy
12:00 PM 51 °F - 43 °F 65% 30.25 in 12 mi NW 15.7 mph - -   Partly Cloudy
12:25 PM 51.8 °F - 41.0 °F 67% 30.24 in 6.2 mi NW 15.0 mph 26.5 mph N/A   Mostly Cloudy
12:55 PM 51.8 °F - 42.8 °F 71% 30.24 in 6.2 mi NW 16.1 mph 27.6 mph N/A   Mostly Cloudy
1:00 PM 51 °F - 42 °F 62% 30.25 in 10 mi NW 15.7 mph - -   Partly Cloudy
1:00 PM 51.8 °F - 42.8 °F 71% 30.24 in 6.2 mi NW 16.1 mph 27.6 mph N/A   Overcast
1:01 PM 51.8 °F - 42.8 °F 71% 30.24 in 6.2 mi NW 17.3 mph - N/A   Overcast
1:25 PM 51.8 °F - 42.8 °F 71% 30.24 in 6.2 mi NW 16.1 mph - N/A   Scattered Clouds
1:40 PM 51.8 °F - 41.0 °F 67% 30.24 in 6.2 mi NW 16.1 mph 27.6 mph N/A   Mostly Cloudy
1:41 PM 51.8 °F - 41.0 °F 67% 30.24 in 6.2 mi NW 15.0 mph 27.6 mph N/A   Mostly Cloudy
1:55 PM 53.6 °F - 42.8 °F 67% 30.24 in 6.2 mi NW 16.1 mph - N/A   Overcast
2:00 PM 51 °F - 41 °F 59% 30.25 in 9 mi NW 17.9 mph - -   Partly Cloudy
2:02 PM 51.8 °F - 41.0 °F 67% 30.24 in 6.2 mi NW 18.4 mph 29.9 mph N/A   Mostly Cloudy
2:12 PM 51.8 °F - 41.0 °F 67% 30.24 in 6.2 mi NW 16.1 mph - N/A   Mostly Cloudy
2:18 PM 51.8 °F - 41.0 °F 67% 30.24 in 6.2 mi NW 13.8 mph - N/A   Overcast
2:25 PM 51.8 °F - 41.0 °F 67% 30.24 in 6.2 mi NNW 13.8 mph - N/A   Overcast
2:55 PM 51.8 °F - 41.0 °F 67% 30.21 in 6.2 mi NW 13.8 mph - N/A   Overcast
3:00 PM 52 °F - 41 °F 56% 30.25 in 9 mi NW 13.4 mph - -   Overcast
3:25 PM 51.8 °F - 41.0 °F 67% 30.21 in 6.2 mi NW 13.8 mph - N/A   Overcast
3:55 PM 50.0 °F - 42.8 °F 76% 30.24 in 6.2 mi WNW 13.8 mph - N/A   Overcast
4:00 PM 51 °F - 42 °F 63% 30.25 in 7 mi West 15.7 mph - -   Overcast
4:25 PM 50.0 °F - 42.8 °F 76% 30.24 in 6.2 mi West 11.5 mph - N/A   Mostly Cloudy
4:55 PM 50.0 °F - 42.8 °F 76% 30.24 in 6.2 mi WNW 10.4 mph - N/A   Overcast
5:00 PM 51 °F - 42 °F 63% 30.25 in 8 mi West 11.2 mph - -   Overcast
5:25 PM 50.0 °F - 42.8 °F 76% 30.21 in 6.2 mi WNW 11.5 mph - N/A   Overcast
5:55 PM 50.0 °F - 42.8 °F 76% 30.21 in 6.2 mi West 9.2 mph - N/A   Overcast
6:00 PM 50 °F - 42 °F 65% 30.23 in 8 mi West 8.9 mph - -   Mostly Cloudy
6:25 PM 50.0 °F - 42.8 °F 76% 30.21 in 6.2 mi West 10.4 mph - N/A   Overcast
6:55 PM 48.2 °F - 41.0 °F 76% 30.21 in 6.2 mi WSW 10.4 mph - N/A   Overcast
7:00 PM 49 °F - 41 °F 67% 30.21 in 9 mi WSW 11.2 mph - -   Partly Cloudy
7:25 PM 48.2 °F - 42.8 °F 82% 30.18 in 6.2 mi WSW 10.4 mph - N/A   Mostly Cloudy
7:55 PM 48.2 °F - 41.0 °F 76% 30.18 in 6.2 mi WSW 9.2 mph - N/A   Overcast
8:00 PM 49 °F - 42 °F 67% 30.21 in 9 mi WSW 6.7 mph - -   Overcast
8:25 PM 50.0 °F - 41.0 °F 71% 30.18 in 6.2 mi SW 5.8 mph - N/A   Overcast
8:55 PM 50.0 °F - 42.8 °F 76% 30.18 in 6.2 mi WSW 6.9 mph - N/A   Overcast
9:00 PM 50 °F - 42 °F 65% 30.20 in 10 mi WSW 8.9 mph - -   Overcast
9:25 PM 50.0 °F - 42.8 °F 76% 30.18 in 6.2 mi SW 6.9 mph - N/A   Overcast
9:55 PM 50.0 °F - 42.8 °F 76% 30.18 in 6.2 mi WSW 9.2 mph - N/A   Overcast
10:00 PM 51 °F - 42 °F 64% 30.18 in 10 mi WSW 8.9 mph - -   Overcast
10:25 PM 50.0 °F - 42.8 °F 76% 30.15 in 6.2 mi WSW 10.4 mph - N/A   Overcast
10:55 PM 51.8 °F - 44.6 °F 76% 30.15 in 6.2 mi WSW 15.0 mph - N/A   Overcast
11:00 PM 51 °F - 44 °F 70% 30.16 in 9 mi WSW 15.7 mph - -   Overcast
11:25 PM 51.8 °F - 44.6 °F 76% 30.15 in 6.2 mi West 13.8 mph - N/A   Overcast
11:55 PM 51.8 °F - 44.6 °F 76% 30.15 in 6.2 mi West 12.7 mph - N/A   Overcast